YACHTS Weather Reports


time (UTC)temp
F
wind
direction
speed
knots
gust
knots
rain 1hr
in
rain 24hr
in
rain mn
in
humidity
%
barometer
mb
20260505023007 53 291 4.3 7.8 0.00 0.00 0.00 83 1013.3
20260505022454 53 295 0.0 6.1 0.00 0.00 0.00 83 1013.3
20260505021941 54 295 0.0 7.0 0.00 0.00 0.00 82 1013.2
20260505021428 54 253 0.0 7.0 0.00 0.00 0.00 82 1013.2
20260505020915 54 254 2.6 7.0 0.00 0.00 0.00 82 1013.1
20260505020402 54 250 0.0 7.0 0.00 0.00 0.00 82 1013.2
20260505015849 54 203 2.6 9.6 0.00 0.00 0.00 82 1013.2
20260505015336 54 198 1.7 9.6 0.00 0.00 0.00 82 1013.2
20260505014823 54 257 2.6 9.6 0.00 0.00 0.00 81 1013.2
20260505014310 54 228 1.7 3.5 0.00 0.00 0.00 81 1013.2
20260505013757 54 310 3.5 10.4 0.00 0.00 0.00 81 1013.2
20260505012732 54 25 1.7 8.7 0.00 0.00 0.00 81 1013.4
20260505012219 54 246 5.2 8.7 0.00 0.00 0.00 81 1013.4
20260505011705 54 231 4.3 8.7 0.00 0.00 0.00 81 1013.5
20260505011152 54 253 4.3 8.7 0.00 0.00 0.00 81 1013.6
20260505010639 54 257 1.7 8.7 0.00 0.00 0.00 81 1013.6
20260505005613 55 274 3.5 8.7 0.00 0.00 0.00 81 1013.7
20260505004034 55 274 6.1 11.3 0.00 0.00 0.00 81 1013.8
20260505003521 55 264 4.3 12.2 0.00 0.00 0.00 81 1013.8
20260505003008 56 260 4.3 12.2 0.00 0.00 0.00 81 1013.8
20260505001942 55 259 4.3 11.3 0.00 0.00 0.00 81 1013.8
20260504234311 55 264 2.6 15.6 0.00 0.00 0.00 80 1013.8
20260504232219 57 268 7.8 14.8 0.00 0.00 0.00 80 1013.8
20260504231706 57 245 5.2 14.8 0.00 0.00 0.00 80 1013.8
20260504231154 57 275 7.8 14.8 0.00 0.00 0.00 80 1013.8
20260504224548 56 254 6.1 12.2 0.00 0.00 0.00 82 1014.1
20260504224035 56 225 6.1 12.2 0.00 0.00 0.00 83 1014.2
20260504223522 57 252 4.3 11.3 0.00 0.00 0.00 83 1014.2
20260504221943 56 263 4.3 15.6 0.00 0.00 0.00 84 1014.4
20260504221430 56 260 4.3 15.6 0.00 0.00 0.00 84 1014.5
20260504220404 57 264 5.2 13.0 0.00 0.00 0.00 85 1014.6
20260504215851 55 294 1.7 13.0 0.00 0.00 0.00 85 1014.6
20260504214825 56 263 4.3 7.8 0.00 0.00 0.00 86 1014.7
20260504213759 56 285 6.1 14.8 0.00 0.00 0.00 86 1014.6
20260504212220 55 215 5.2 13.9 0.00 0.00 0.00 86 1014.7
20260504211154 55 259 7.0 13.9 0.00 0.00 0.00 86 1014.8
20260504210641 55 264 7.0 12.2 0.00 0.00 0.00 86 1014.8
20260504210128 55 229 7.0 13.9 0.00 0.00 0.00 85 1014.8
20260504205615 55 296 6.1 13.9 0.00 0.00 0.00 86 1014.8
20260504205102 56 263 4.3 13.9 0.00 0.00 0.00 87 1014.7
20260504204549 55 243 4.3 11.3 0.00 0.00 0.00 87 1014.8
20260504204036 55 263 6.1 11.3 0.00 0.00 0.00 86 1014.7
20260504203523 54 121 3.5 11.3 0.00 0.00 0.00 88 1014.8
20260504202457 55 260 6.1 13.0 0.00 0.00 0.00 89 1014.9
20260504201944 55 294 5.2 13.0 0.00 0.00 0.00 89 1014.8
20260504201431 54 284 4.3 13.0 0.00 0.00 0.00 89 1014.9
20260504200918 54 214 3.5 8.7 0.00 0.00 0.00 89 1014.9
20260504200405 54 329 3.5 10.4 0.00 0.00 0.00 89 1014.9
20260504195852 54 302 4.3 10.4 0.00 0.00 0.00 89 1014.9
20260504194826 53 0 5.2 13.0 0.00 0.00 0.00 89 1014.8
20260504194313 54 267 4.3 13.0 0.00 0.00 0.00 89 1014.9
20260504193800 54 257 4.3 13.0 0.00 0.00 0.00 89 1014.8
20260504193247 54 282 3.5 10.4 0.00 0.00 0.00 89 1014.7
20260504192734 54 278 2.6 10.4 0.00 0.00 0.00 89 1014.7
20260504192221 54 242 0.0 10.4 0.00 0.00 0.00 89 1014.6
20260504191708 54 270 2.6 8.7 0.00 0.00 0.00 89 1014.6
20260504191155 54 175 3.5 8.7 0.00 0.00 0.00 90 1014.6
20260504190642 53 326 3.5 8.7 0.00 0.00 0.00 90 1014.6
20260504190129 54 289 3.5 8.7 0.00 0.00 0.00 90 1014.7
20260504185616 53 252 4.3 7.0 0.00 0.00 0.00 90 1014.7
20260504185103 53 273 7.0 12.2 0.00 0.00 0.00 90 1014.8
20260504184549 53 266 5.2 12.2 0.00 0.00 0.00 90 1014.9
20260504184036 53 257 6.1 12.2 0.00 0.00 0.00 89 1014.8
20260504183524 53 252 3.5 10.4 0.00 0.00 0.00 90 1014.9
20260504182457 53 261 3.5 6.1 0.00 0.00 0.00 90 1014.7
20260504181945 53 267 4.3 8.7 0.00 0.00 0.00 90 1014.7
20260504175852 53 197 2.6 9.6 0.00 0.00 0.00 90 1014.7
20260504175339 53 305 4.3 9.6 0.00 0.00 0.00 90 1014.7
20260504174826 53 267 0.9 11.3 0.00 0.00 0.00 90 1014.7
20260504174313 53 0 3.5 11.3 0.00 0.00 0.00 90 1014.6
20260504173800 53 287 4.3 11.3 0.00 0.00 0.00 90 1014.7
20260504173247 53 299 0.9 8.7 0.00 0.00 0.00 90 1014.7
20260504172734 52 267 3.5 8.7 0.00 0.00 0.00 90 1014.6
20260504172221 53 259 4.3 9.6 0.00 0.00 0.00 90 1014.6
20260504171708 53 212 3.5 9.6 0.00 0.00 0.00 90 1014.6
20260504170643 53 268 4.3 7.8 0.00 0.00 0.00 90 1014.6
20260504170129 53 266 0.9 6.1 0.00 0.00 0.00 91 1014.5
20260504160407 53 231 0.9 13.0 0.00 0.00 0.00 91 1014.2
20260504150643 52 226 0.0 8.7 0.00 0.00 0.00 92 1014.1
20260504150130 52 183 0.9 8.7 0.00 0.00 0.00 92 1014.1
20260504140920 51 200 2.6 8.7 0.00 0.00 0.00 91 1013.7
20260504140408 51 281 0.0 4.3 0.00 0.00 0.00 91 1013.6
20260504130644 51 0 0.0 7.0 0.00 0.00 0.00 91 1013.1
20260504130131 51 0 0.0 7.0 0.00 0.00 0.00 91 1013.0
20260504110646 51 207 2.6 8.7 0.00 0.00 0.00 92 1012.9
20260504100409 51 161 0.0 6.1 0.00 0.00 0.00 92 1012.9
20260504090133 51 0 0.0 7.0 0.00 0.00 0.00 92 1012.7
20260504081949 51 298 0.9 6.1 0.00 0.00 0.00 92 1012.7
20260504081436 51 254 1.7 5.2 0.00 0.00 0.00 92 1012.7
20260504080923 51 225 0.0 7.0 0.00 0.00 0.00 93 1012.7
20260504080410 51 145 1.7 7.0 0.00 0.00 0.00 92 1012.6
20260504070134 52 196 0.0 8.7 0.00 0.00 0.00 92 1012.3
20260504050648 51 179 0.0 10.4 0.00 0.00 0.00 93 1011.9
20260504050135 51 271 0.0 10.4 0.00 0.00 0.00 93 1011.8
20260504045621 51 256 0.0 10.4 0.00 0.00 0.00 93 1011.9
20260504045109 51 235 2.6 9.6 0.00 0.00 0.00 93 1011.9
20260504044556 51 231 1.7 8.7 0.00 0.00 0.00 93 1011.8
20260504044042 51 256 1.7 14.8 0.00 0.00 0.00 93 1011.8
20260504043529 51 264 5.2 14.8 0.00 0.00 0.00 93 1011.7
20260504043016 51 250 0.9 14.8 0.00 0.00 0.00 93 1011.7
20260504042503 52 226 0.9 13.0 0.00 0.00 0.00 93 1011.7
20260504041951 52 261 3.5 13.0 0.00 0.00 0.00 92 1011.5
20260504041437 52 198 0.0 11.3 0.00 0.00 0.00 92 1011.5
20260504040924 52 266 0.9 11.3 0.00 0.00 0.00 92 1011.4
20260504040411 52 242 4.3 11.3 0.00 0.00 0.00 92 1011.3
20260504035858 52 263 4.3 9.6 0.00 0.00 0.00 92 1011.3
20260504035345 52 0 4.3 14.8 0.00 0.00 0.00 92 1011.1
20260504034833 51 246 4.3 14.8 0.00 0.00 0.00 92 1011.0
20260504034319 51 0 0.9 14.8 0.00 0.00 0.00 92 1011.1
20260504033806 51 0 1.7 12.2 0.00 0.00 0.00 92 1010.9
20260504033253 51 239 3.5 12.2 0.00 0.00 0.00 92 1010.8
20260504032740 51 214 3.5 11.3 0.00 0.00 0.00 92 1010.7
20260504032228 51 288 1.7 11.3 0.00 0.00 0.00 92 1010.5
20260504031715 51 273 3.5 11.3 0.00 0.00 0.00 92 1010.6
20260504031201 51 257 1.7 13.0 0.00 0.00 0.00 92 1010.6
20260504030649 51 270 4.3 13.0 0.00 0.00 0.00 92 1010.5
20260504030135 51 260 6.1 13.0 0.00 0.00 0.00 92 1010.6
20260504025626 51 278 0.9 12.2 0.00 0.00 0.00 92 1010.5
20260504025109 51 284 5.2 12.2 0.00 0.00 0.00 92 1010.4
20260504024557 51 302 2.6 11.3 0.00 0.00 0.00 92 1010.5
20260504024043 51 302 4.3 11.3 0.00 0.00 0.00 92 1010.4
20260504023531 51 263 1.7 11.3 0.00 0.00 0.00 92 1010.4